Location: Mahannah Oil Field
(37.4664°N, 96.6003°W)
Time: 03:19:38
(UTC+00:00)

A-11 Canister half - Pass Details

Date: 01 February 2021
Orbit: 1525 x 1684 km, 47.3° (Epoch: 02 March)

Event Time Altitude Azimuth Distance (km) Brightness Sun altitude
Rises 17:22:43 0° 213° (SSW) 4,679 12.0 32.7°
Reaches altitude 10° 17:25:52 10° 209° (SSW) 3,689 11.6 32.9°
Maximum altitude 17:34:43 52° 136° (SE) 1,837 10.9 33.5°
Drops below altitude 10° 17:43:38 10° 64° (ENE) 3,713 11.0 34.1°
Sets 17:46:47 0° 59° (ENE) 4,712 11.4 34.2°
